Location: Vancouver
(49.2500°N, 123.1330°W)
Time: 03:18:22
(UTC-07:00)

AO-27 - Visible Passes

Search period start: 28 April 2015 00:00
Search period end: 08 May 2015 00:00
Orbit: 785 x 799 km, 98.7° (Epoch: 27 April)

Date Brightness Start Highest point End Pass type
(mag) Time Alt. Az. Time Alt. Az. Time Alt. Az.
28 Apr 9.9 02:27:07 10° NE 02:30:14 16° E 02:33:24 11° SE visible
28 Apr 7.6 04:05:16 10° NNE 04:10:29 80° WNW 04:14:10 20° SSW visible
29 Apr 8.0 03:36:23 10° NNE 03:41:32 61° ESE 03:44:59 21° S visible
29 Apr 9.0 05:16:36 10° N 05:20:43 24° WNW 05:24:43 10° WSW visible
30 Apr 8.9 03:07:42 10° NNE 03:12:27 35° E 03:15:48 18° SSE visible
30 Apr 8.4 04:47:14 10° N 04:52:01 38° WNW 04:56:34 11° SW visible
01 May 9.7 02:39:24 10° NE 02:43:12 21° E 02:46:36 12° SE visible
01 May 7.8 04:18:05 10° N 04:23:14 63° WNW 04:27:23 16° SSW visible
02 May 10.1 02:12:07 10° ENE 02:13:48 12° E 02:15:46 10° ESE visible
02 May 7.7 03:49:07 10° NNE 03:54:20 77° ESE 03:58:11 19° S visible
03 May 8.5 03:20:20 10° NNE 03:25:18 45° E 03:28:59 17° SSE visible
03 May 8.7 05:00:10 10° N 05:04:42 31° WNW 05:09:10 10° WSW visible
04 May 9.3 02:51:50 10° NE 02:56:07 26° E 02:59:47 13° SE visible
04 May 8.0 04:30:56 10° N 04:35:57 50° WNW 04:40:34 12° SW visible
05 May 10.0 02:23:54 10° NE 02:26:47 15° E 02:29:53 10° ESE visible
05 May 7.6 04:01:52 10° NNE 04:07:06 85° WNW 04:11:22 16° SSW visible
06 May 8.1 03:33:00 10° NNE 03:38:08 57° E 03:42:10 16° S visible
07 May 9.0 03:04:21 10° NNE 03:09:01 33° E 03:12:58 14° SSE visible
07 May 8.3 04:43:48 10° N 04:48:39 40° WNW 04:53:28 10° SW visible
